Theta_e
335 336 337 337 336 335 335 334 333 333 333 333 333 333 332 334 341 345 346 342 335 333 334 333 332 332 332 333 332 331 332 331 331 331 331 331 331 330 330 330 330 331 331 331 331 331 330 330 330 330 331 331 331 330 330 329 328 328 327 326 325 323 321 318 317 317 318 319 319 318 318 318 317 317
336 337 336 336 335 335 335 335 335 334 335 334 334 334 332 332 335 338 343 344 336 333 335 333 332 332 332 333 332 332 332 331 331 331 331 331 331 331 330 330 330 331 331 331 331 331 330 331 331 331 331 331 331 331 331 330 329 329 329 328 327 326 324 322 321 322 324 324 322 320 319 319 318 317
335 337 336 336 335 335 335 334 334 334 334 334 334 334 333 333 333 333 336 342 338 333 334 333 333 334 332 331 331 331 331 330 330 330 330 330 331 331 331 331 331 331 331 331 331 330 330 331 332 331 331 331 332 332 331 331 330 330 329 329 329 328 328 327 326 326 326 326 324 322 322 320 319 318
334 336 336 336 335 335 335 333 333 334 334 334 334 335 334 333 335 334 334 337 337 333 333 333 332 332 331 329 329 329 329 329 330 330 330 330 330 331 331 331 331 330 330 330 330 330 330 330 331 330 330 331 332 332 331 330 330 329 329 328 328 328 327 327 326 326 326 325 324 324 324 323 321 320
336 335 336 337 336 335 335 333 334 335 335 335 335 335 334 333 334 335 335 335 335 333 332 332 331 330 330 329 329 328 329 329 330 331 331 332 332 331 331 331 330 329 329 328 328 329 329 329 329 330 330 331 331 330 330 330 329 329 329 328 328 327 327 326 326 325 325 325 325 325 324 324 323 322
337 336 337 337 337 336 335 335 335 334 334 335 335 335 335 334 334 335 335 335 335 334 332 331 332 331 331 331 331 330 331 330 330 331 330 331 332 331 330 329 329 328 328 328 327 328 328 328 328 329 329 330 329 329 329 329 329 329 329 328 328 327 327 327 326 326 326 326 325 325 325 324 324 323
337 336 337 336 337 337 336 335 335 334 334 334 335 335 335 334 334 335 335 336 335 334 333 332 333 332 332 332 332 332 332 332 331 331 330 330 331 330 329 328 328 328 328 328 328 327 327 328 327 327 328 328 328 328 328 329 329 329 328 328 328 328 328 327 327 327 327 327 326 326 326 325 324 324
338 337 336 336 336 336 336 336 335 334 334 335 336 336 335 334 334 334 335 335 334 334 333 333 332 332 332 333 333 333 333 333 332 331 330 330 331 330 329 328 328 328 328 328 328 328 328 329 328 328 328 327 327 328 328 328 329 329 329 329 328 328 328 328 328 328 327 327 327 326 326 326 325 324
338 338 337 336 336 336 335 335 334 333 334 335 336 336 335 334 334 334 335 335 334 334 334 333 332 333 333 333 333 334 334 334 333 332 331 331 331 330 329 328 329 329 329 328 328 328 328 329 328 328 328 328 328 327 326 326 327 327 327 327 327 327 328 328 328 327 327 327 327 327 326 326 325 325
337 337 337 336 336 336 335 335 335 334 335 335 336 336 335 334 333 334 334 334 334 334 334 333 333 334 333 334 334 334 334 334 333 332 332 331 330 330 328 328 328 328 328 328 328 328 328 328 328 327 325 325 325 325 324 324 325 325 325 326 327 328 328 327 326 326 327 327 326 325 325 325 325 325
336 336 336 337 336 336 336 336 336 335 336 336 336 335 335 335 334 333 334 334 334 334 334 334 334 334 334 334 334 333 334 334 333 332 332 331 330 329 328 328 328 328 328 328 328 328 327 327 325 323 322 323 324 324 325 325 326 326 327 327 328 327 326 325 324 325 325 325 324 323 323 324 324 324
338 337 336 337 337 336 336 336 336 335 336 336 336 336 335 335 334 333 333 333 333 334 334 334 334 334 335 334 333 333 334 333 333 332 331 331 329 328 328 328 328 328 328 327 327 327 327 325 323 322 322 323 324 324 324 326 327 327 327 326 325 324 323 321 321 322 322 321 321 321 322 323 323 323
339 338 337 336 336 336 336 336 336 335 335 335 336 336 336 335 334 333 333 333 333 334 335 335 335 334 334 333 332 333 333 333 333 332 330 329 329 329 328 328 327 327 326 326 325 324 324 323 321 320 321 321 320 320 320 321 322 322 322 321 321 320 320 320 320 321 320 320 321 321 322 322 322 322
339 339 338 337 338 338 337 336 336 336 335 335 336 336 336 335 334 333 333 333 333 334 334 334 334 333 332 331 331 332 332 332 332 331 330 329 329 329 328 328 326 325 325 324 324 322 321 321 320 319 319 319 319 319 319 319 319 319 318 318 318 319 320 320 321 321 321 322 322 322 322 321 321 320
339 339 338 338 339 339 338 337 337 337 336 335 336 337 336 334 334 334 333 333 333 334 334 333 332 332 331 331 331 332 332 331 331 330 329 329 329 329 328 328 326 324 324 324 324 322 319 319 319 319 320 320 319 319 319 319 319 319 319 319 319 319 320 321 321 321 321 320 320 320 319 318 317 316
338 338 338 338 339 339 338 338 338 337 337 336 336 337 336 335 334 333 332 332 333 333 333 332 332 332 331 332 332 332 331 331 330 330 329 329 329 329 328 327 326 325 323 324 324 321 318 318 319 320 320 320 319 319 319 319 320 320 320 320 320 320 320 320 319 318 318 317 317 316 315 314 313 313
339 339 338 338 338 338 338 338 338 338 338 338 338 338 336 335 333 333 333 333 332 332 333 333 333 332 332 332 333 332 332 331 330 330 330 329 329 329 329 328 326 324 322 322 322 320 319 319 320 320 321 321 320 319 318 317 317 317 317 317 317 316 315 315 314 314 314 314 313 313 312 312 313 314
340 340 339 339 339 339 339 339 338 338 337 338 339 338 335 333 333 333 333 332 331 332 332 332 333 334 333 333 332 331 331 331 330 330 330 330 330 330 328 326 324 322 321 321 321 320 320 320 320 321 321 319 317 316 315 314 313 314 313 312 311 311 311 311 311 311 312 312 313 313 314 315 317 318
340 340 339 339 339 339 339 339 338 338 338 337 337 336 335 333 332 332 332 332 331 331 330 332 334 334 333 332 331 331 331 331 330 330 329 329 330 328 325 323 321 321 321 320 320 320 321 321 321 320 318 315 314 314 313 311 310 310 310 311 312 313 315 315 316 316 316 317 317 318 318 318 318 317
339 339 339 339 339 339 339 339 338 338 337 335 334 334 334 333 331 331 331 330 329 329 331 333 334 333 331 331 330 330 330 328 327 326 325 326 326 324 321 321 321 321 321 321 320 320 320 320 318 316 314 312 311 311 310 309 309 311 313 315 316 317 318 318 319 319 319 319 320 320 319 318 317 317
338 338 339 339 339 339 339 339 338 335 333 332 331 332 332 331 330 330 329 327 326 330 334 335 333 331 330 329 328 328 327 325 324 324 323 323 323 322 320 320 320 321 321 321 321 319 318 317 314 312 311 310 310 310 310 311 313 314 315 316 316 317 318 318 319 319 319 320 320 320 319 318 318 318
338 338 339 339 340 340 339 338 337 335 333 332 331 331 332 331 330 329 328 326 329 333 335 334 332 330 328 327 326 325 324 322 322 322 323 323 322 322 321 320 320 321 319 319 319 317 314 313 311 311 311 311 310 311 312 313 314 315 315 315 316 317 318 318 319 319 319 319 319 319 319 319 319 319
339 339 339 340 340 339 339 338 337 336 334 333 333 333 332 330 328 327 326 328 332 334 334 332 331 329 328 327 325 323 321 320 321 321 321 320 320 320 319 319 319 321 318 315 314 314 312 311 311 311 311 312 312 312 312 313 314 314 314 315 316 317 317 318 318 319 319 319 319 319 319 319 320 320
339 339 339 339 339 338 338 338 337 336 334 333 333 332 330 327 325 325 327 330 332 333 332 331 330 328 327 325 323 321 320 320 320 320 318 316 316 315 314 313 315 318 316 312 311 312 311 311 311 311 311 313 313 312 311 312 312 313 314 315 316 317 317 318 318 319 319 319 319 320 320 320 320 320
337 338 338 338 338 338 338 338 337 335 334 333 332 329 327 325 323 325 328 331 332 332 331 330 327 325 323 322 320 320 320 320 319 318 316 315 314 312 312 312 312 314 313 310 309 311 312 311 312 312 312 312 313 312 311 311 312 313 314 315 316 317 317 318 319 319 319 320 320 320 320 319 319 319
335 336 337 337 337 337 337 337 336 335 333 332 331 329 326 325 325 328 331 332 332 331 329 325 323 321 320 319 319 319 320 319 318 317 316 315 312 310 310 310 311 312 311 309 308 310 312 312 311 311 312 312 311 311 311 311 312 313 314 315 316 317 318 319 319 319 320 320 320 319 319 319 319 318
334 334 335 335 335 335 336 335 334 333 332 331 329 327 326 328 329 330 331 330 328 326 323 321 320 319 318 318 319 319 319 318 316 316 315 314 311 309 309 309 309 309 309 308 307 308 310 311 310 310 311 311 310 310 311 311 312 313 314 314 315 317 318 319 319 319 320 319 319 318 318 318 318 317
332 332 333 334 335 335 335 334 334 333 330 328 327 327 329 330 330 329 327 325 323 321 320 319 318 317 317 318 319 319 318 317 315 315 314 313 310 309 308 308 308 308 307 308 308 308 309 309 309 310 310 310 310 310 310 311 312 313 314 315 315 317 318 319 319 319 319 319 318 318 318 318 317 317
332 333 334 334 334 332 332 333 332 330 328 327 328 329 330 330 329 326 323 320 319 318 318 317 317 316 317 317 318 318 318 316 314 313 312 311 309 307 307 307 307 307 307 307 308 308 308 309 309 309 309 309 310 310 311 312 313 314 314 316 316 317 318 318 318 319 319 319 318 318 317 317 317 317
335 336 335 332 329 329 330 331 330 329 328 329 331 331 330 328 326 322 319 317 317 317 317 317 317 317 317 317 318 319 318 315 313 312 310 309 308 307 307 307 307 307 307 308 308 308 307 307 307 308 308 309 309 310 311 312 313 314 314 315 317 318 318 318 318 319 319 318 318 317 316 316 316 316
336 334 332 330 330 331 332 332 331 331 331 331 331 330 327 324 321 319 317 317 317 317 317 317 318 317 318 318 319 319 316 313 311 310 308 308 307 307 307 307 307 307 307 307 307 306 306 307 307 307 308 308 308 309 310 311 312 313 314 316 317 318 318 318 318 318 318 318 317 316 316 316 315 315
332 331 332 332 333 333 333 333 332 332 331 330 329 326 323 321 319 318 317 317 317 318 317 318 318 318 319 320 319 316 313 310 309 308 307 307 307 307 307 307 307 307 307 306 306 306 306 307 307 307 308 308 308 310 312 313 314 315 316 316 317 317 318 318 318 318 317 317 316 315 315 314 314 314
331 331 333 334 333 333 333 332 331 330 329 328 325 323 321 321 320 319 318 318 318 318 318 318 319 319 319 318 315 311 309 308 308 307 307 307 307 307 307 307 307 307 307 306 306 306 307 307 307 307 308 309 310 311 313 315 315 315 316 317 317 317 317 317 317 317 316 315 314 314 313 313 312 313
332 332 333 332 332 331 331 331 330 329 328 326 324 322 321 321 320 320 319 319 319 320 320 320 318 316 314 312 310 309 308 308 307 306 307 307 307 306 306 306 306 306 306 306 306 306 306 306 306 307 307 308 309 311 312 314 315 315 316 317 317 317 317 317 317 316 314 313 313 312 312 311 311 311
331 331 331 330 330 330 330 329 329 328 326 325 323 322 321 321 321 321 321 321 321 321 319 316 313 311 310 309 308 307 306 306 306 307 307 307 306 305 305 306 306 305 305 306 306 306 306 306 307 307 307 308 310 312 312 313 314 315 316 317 317 317 317 316 316 314 312 311 311 311 311 311 310 310
330 330 330 329 328 328 328 327 327 326 325 324 324 323 323 323 322 322 322 322 321 318 314 311 310 310 309 307 307 306 305 306 307 307 306 305 305 305 305 305 305 305 305 306 306 306 306 306 306 307 307 310 312 312 312 313 314 315 316 317 317 316 316 316 314 312 311 310 309 310 310 310 310 309
330 330 329 327 327 327 326 326 325 325 324 324 323 323 323 322 322 322 321 319 315 312 310 309 310 309 308 307 306 305 305 306 306 306 305 304 304 304 304 304 305 305 305 306 306 306 306 306 306 306 308 311 313 311 310 312 314 315 316 317 316 316 315 314 312 310 309 309 309 309 309 309 309 308
330 329 327 327 327 325 324 323 322 321 320 320 319 319 319 318 318 318 316 313 311 310 310 309 309 308 307 306 306 306 306 306 305 305 304 304 304 304 304 304 305 305 305 306 306 305 306 306 306 306 307 310 312 312 310 311 313 315 316 315 315 315 314 312 310 309 308 308 308 308 308 308 307 307
328 327 326 326 325 322 320 319 318 317 317 316 316 316 316 315 315 314 313 311 310 310 308 306 305 306 306 306 306 306 306 305 305 304 304 303 304 304 304 304 305 305 305 306 305 305 305 305 305 305 306 307 308 309 309 310 313 315 314 313 313 314 312 310 309 308 308 308 308 307 307 306 306 305
327 326 325 324 321 319 319 318 318 318 317 316 316 315 314 314 313 312 312 311 310 308 307 306 306 306 306 306 306 306 305 304 304 304 303 303 304 304 304 304 305 305 305 305 305 305 305 305 305 305 305 306 308 310 312 313 314 314 313 312 312 312 310 309 308 307 308 308 307 307 306 305 304 304
326 324 322 321 320 319 319 319 318 317 317 316 315 314 313 313 312 311 310 309 308 307 307 307 307 307 307 306 305 305 305 304 303 303 303 304 304 304 304 304 305 305 305 305 304 304 305 305 305 306 307 309 312 314 315 314 313 313 312 312 311 310 308 307 307 307 307 307 306 306 305 304 304 304
325 324 321 320 320 319 319 318 318 317 316 315 314 314 313 312 311 310 309 307 307 307 306 307 307 307 306 306 305 305 304 304 303 303 304 304 304 304 304 305 305 305 305 305 304 304 305 304 305 308 310 312 314 315 314 313 312 312 312 312 310 308 307 306 306 306 306 306 305 305 304 303 303 304
326 324 321 319 319 319 318 318 317 316 316 315 314 313 313 312 310 309 308 306 305 305 305 305 306 306 306 305 304 304 304 303 303 303 304 304 304 304 304 305 305 305 305 304 304 304 304 304 306 310 312 312 313 313 313 312 311 312 312 311 309 307 307 306 305 305 305 305 304 303 302 302 302 303
325 323 320 319 319 319 318 317 317 316 316 315 314 313 313 312 310 309 307 305 304 304 304 304 305 305 305 304 304 304 304 303 303 303 304 304 304 304 304 305 305 305 304 303 303 304 304 304 306 310 311 311 311 312 312 311 311 312 312 310 308 306 306 306 305 305 304 304 303 302 301 300 300 301
322 320 319 319 319 318 318 317 316 316 315 314 314 314 313 311 310 307 305 304 304 304 305 305 305 305 304 304 304 304 303 303 303 303 304 304 304 304 304 305 305 304 303 303 303 304 304 304 305 309 311 310 311 311 311 311 311 311 311 309 307 305 305 305 305 305 304 303 303 302 301 299 299 299
Wind_Speed
20 18 17 17 15 14 12 13 15 15 14 14 13 12 11 9 6 3 2 4 6 8 6 4 3 2 6 10 10 11 12 12 12 14 15 16 16 16 17 17 17 17 17 16 16 16 16 16 17 17 17 17 17 17 18 18 17 17 17 18 19 21 22 22 22 21 21 21 21 20 20 20 19 19
22 19 18 18 17 16 15 14 14 15 14 14 13 11 11 11 10 8 5 4 7 9 7 5 4 4 6 9 9 10 12 13 13 14 16 17 18 18 19 19 19 18 18 18 18 18 17 17 16 16 16 15 16 16 16 16 16 16 17 17 19 20 21 21 21 21 22 22 21 21 20 20 20 20
23 21 20 20 19 18 16 15 15 15 15 14 13 12 11 11 12 12 8 3 5 7 6 6 7 7 6 8 10 11 12 13 13 13 15 16 17 18 19 20 21 20 20 20 20 19 19 18 18 17 16 16 16 17 17 18 17 17 17 17 18 20 21 22 22 23 23 22 21 20 20 19 19 19
25 24 22 22 21 19 18 17 16 15 15 15 14 12 11 11 11 12 11 6 6 9 8 8 10 10 9 10 11 11 11 12 12 13 15 16 16 17 19 20 20 21 21 21 20 20 19 19 19 18 18 17 17 17 18 18 19 19 19 18 19 19 20 21 22 23 23 23 22 21 20 20 19 18
26 26 25 24 22 21 20 19 18 16 16 16 16 14 13 13 13 13 13 11 10 11 11 11 12 11 11 11 11 11 12 12 12 14 15 16 16 17 18 19 20 20 20 19 19 19 19 19 19 19 19 19 19 18 19 19 20 20 21 21 21 21 22 22 23 23 24 24 25 25 24 22 21 19
29 29 28 26 23 21 21 21 21 19 18 18 19 17 15 16 16 17 18 16 13 12 13 12 13 13 12 14 13 13 13 13 13 15 16 16 16 16 17 18 19 19 18 18 19 19 19 19 20 20 21 21 21 20 20 20 21 21 22 22 23 24 24 25 25 25 25 25 25 26 26 25 23 22
31 30 30 28 25 22 22 23 23 22 21 21 21 19 17 18 19 19 20 18 15 15 16 14 15 15 15 16 16 15 15 15 15 16 16 16 16 16 17 18 18 18 18 18 19 20 20 20 21 21 22 22 22 22 21 21 21 21 22 22 24 25 25 26 26 26 26 25 25 26 27 27 26 25
32 31 31 30 27 25 25 25 24 24 23 23 22 21 20 20 20 20 22 21 18 17 17 16 17 17 17 18 17 17 17 18 17 17 17 16 17 17 17 19 20 19 18 18 19 20 21 22 22 22 23 23 23 23 23 23 24 24 24 25 25 25 25 25 26 26 26 27 26 26 26 26 27 27
31 31 31 31 29 28 28 27 26 25 24 24 24 22 21 21 21 21 23 24 21 19 19 18 18 18 19 20 20 20 20 20 19 18 17 17 18 18 18 19 19 19 18 18 18 18 20 21 22 23 24 24 24 24 24 24 25 26 26 26 26 25 25 25 25 26 27 27 28 27 26 25 26 27
31 31 31 31 30 30 29 29 28 26 25 25 24 23 22 21 20 20 21 22 22 21 21 20 20 20 21 22 22 21 20 20 19 18 18 18 18 17 17 18 18 17 17 17 16 17 18 20 22 23 24 24 24 23 23 24 25 25 26 26 26 25 24 24 24 25 25 26 26 26 25 25 25 25
32 32 32 32 32 31 30 29 28 27 26 25 24 24 24 22 21 20 20 21 21 21 21 21 22 23 23 23 23 22 19 17 17 17 17 19 18 17 18 18 17 16 16 17 18 18 19 20 21 22 22 22 22 22 22 23 23 24 24 25 25 25 25 25 26 26 26 26 26 26 25 24 23 22
32 33 33 33 32 32 31 30 29 27 26 26 26 26 26 25 24 22 21 21 21 21 21 22 23 23 23 23 23 22 19 16 17 17 16 17 18 18 19 20 19 17 18 19 21 22 22 22 22 22 22 22 23 23 23 23 24 25 25 25 26 27 27 26 25 25 24 24 25 25 24 23 22 22
32 32 33 33 33 32 33 32 30 28 27 28 28 28 27 27 26 24 23 21 21 21 20 21 22 21 22 24 23 22 21 19 20 19 16 16 19 19 19 22 23 21 20 21 22 23 22 22 22 22 22 23 22 23 23 23 24 24 24 24 23 23 23 22 21 22 22 22 23 23 24 24 24 24
32 32 32 33 32 32 33 32 30 29 28 29 29 28 27 27 27 25 23 22 22 20 18 20 21 19 20 24 24 23 22 21 20 19 17 19 20 18 17 21 24 22 19 19 21 24 23 22 22 21 21 20 19 20 20 19 19 18 17 17 18 18 19 20 20 21 21 23 24 24 24 24 24 24
32 31 31 32 31 30 30 30 29 28 28 28 29 28 27 27 27 26 24 23 21 18 17 20 21 19 20 25 25 22 21 21 20 19 19 19 19 17 14 15 20 22 20 18 21 25 24 22 22 22 20 19 19 20 20 19 19 19 19 18 19 20 20 20 20 20 20 21 21 22 23 24 24 25
32 30 31 31 31 30 30 29 28 28 28 28 29 29 29 28 27 25 24 22 19 16 18 20 22 22 22 23 24 23 21 21 20 19 19 19 19 18 15 15 19 23 24 22 22 25 25 23 23 23 20 18 20 20 20 20 21 20 20 20 20 20 20 20 19 20 21 22 24 26 27 27 27 27
31 30 30 30 30 30 30 29 28 28 28 28 28 27 24 21 20 20 19 18 17 18 20 21 24 25 23 22 24 24 21 20 19 17 19 20 20 20 19 20 23 25 25 23 21 22 26 25 23 24 20 18 18 19 19 19 18 17 18 19 21 22 23 24 25 26 27 28 29 29 28 27 27 27
31 30 30 29 28 28 28 29 30 29 28 28 26 22 18 15 14 15 17 18 19 21 22 23 25 26 24 23 23 21 19 20 20 19 20 21 22 22 21 21 24 25 25 24 18 17 23 24 22 22 18 14 15 18 19 21 21 23 25 25 26 26 26 27 27 27 27 26 26 25 25 25 26 27
31 30 30 28 28 27 27 29 30 29 29 27 21 18 17 18 18 19 19 20 20 22 24 25 24 23 21 20 19 18 18 20 20 19 20 20 21 22 20 21 24 25 25 23 16 13 19 21 17 16 14 14 19 22 25 27 28 28 27 24 22 21 20 20 21 21 22 22 22 22 22 23 25 27
31 29 28 26 26 26 26 28 27 23 22 19 16 14 15 18 22 23 21 20 21 23 25 24 22 20 19 18 18 18 17 17 16 16 17 19 20 20 18 20 23 23 23 22 15 13 15 14 12 14 17 20 25 27 27 26 24 21 19 18 18 19 19 20 21 21 22 22 22 22 23 24 26 28
28 26 25 24 25 25 25 24 20 16 15 14 14 16 17 17 20 22 22 22 22 23 22 21 20 18 17 16 15 14 13 14 15 15 17 19 19 18 14 13 17 20 21 19 14 11 12 12 14 20 22 22 25 24 22 20 18 18 19 20 21 22 22 22 23 23 24 23 23 24 25 26 28 30
23 23 23 23 25 25 23 20 17 15 16 16 18 21 20 19 20 21 21 20 20 19 18 18 17 15 14 12 11 12 14 14 15 16 17 16 16 15 12 12 15 18 18 15 10 10 14 17 19 21 19 20 23 22 19 20 21 22 24 24 24 24 24 24 25 26 26 26 26 26 27 28 30 32
19 19 20 21 23 23 20 18 15 15 17 20 23 23 20 19 20 20 18 17 16 16 17 16 15 15 14 14 14 16 15 13 14 14 11 8 8 9 10 12 11 10 11 12 11 13 17 19 19 18 14 12 16 20 21 22 25 27 27 27 26 25 26 27 27 29 29 29 29 28 29 30 31 34
20 19 19 18 18 18 16 15 13 12 13 19 23 22 19 18 19 18 16 15 15 15 15 15 16 17 17 18 18 17 14 13 13 10 6 5 8 9 10 12 11 9 11 14 14 14 16 17 19 22 17 10 10 18 24 26 28 27 27 28 27 27 28 29 30 31 32 31 31 31 31 31 32 34
24 22 20 18 16 16 14 13 12 11 14 20 24 22 18 17 19 17 15 14 14 14 14 15 17 19 19 19 18 15 13 12 9 7 7 10 13 12 12 12 13 15 16 15 15 15 17 19 21 24 21 15 14 19 24 28 29 28 26 27 28 29 30 31 32 33 33 33 33 33 33 33 33 34
25 23 21 19 18 16 14 12 13 15 18 21 21 19 17 17 17 16 14 13 12 13 15 16 17 18 18 16 13 11 9 8 8 9 12 13 14 14 14 13 14 17 18 16 16 18 20 21 22 22 20 19 19 21 21 23 28 29 27 27 29 30 31 31 32 33 34 33 34 34 34 34 34 35
24 22 21 19 17 14 11 11 14 16 18 18 16 15 15 14 14 13 12 11 12 13 14 15 16 16 14 11 8 7 7 9 11 12 13 14 16 16 14 14 15 17 18 17 18 19 21 22 23 23 23 22 20 18 17 20 25 29 29 30 31 31 31 30 31 32 33 32 33 34 34 35 36 37
21 20 18 15 12 10 10 12 15 16 15 14 14 12 11 11 11 11 11 11 11 12 13 13 13 12 10 8 8 8 9 11 12 12 13 16 17 15 14 14 15 16 17 17 17 19 21 23 23 23 24 24 20 16 16 21 26 29 29 29 30 30 30 31 31 32 32 32 33 34 34 35 37 38
17 15 12 9 9 9 11 13 16 16 14 13 10 9 10 11 11 11 10 10 10 10 9 9 9 9 8 8 9 11 12 11 12 13 16 17 16 13 14 16 16 15 15 16 17 18 18 19 20 21 22 24 23 22 22 23 26 28 28 27 28 30 31 31 30 30 31 32 33 34 34 36 37 37
12 11 8 8 9 9 10 12 14 14 12 10 9 10 11 11 11 10 9 9 9 9 8 8 9 9 9 10 13 14 13 12 12 14 15 16 14 13 15 17 17 16 15 15 16 16 16 17 20 21 22 24 24 25 26 24 24 27 29 28 27 28 29 30 30 30 31 32 34 35 36 37 37 37
12 10 9 9 10 10 10 11 11 10 10 10 11 11 11 12 12 11 11 11 11 11 10 11 11 12 12 14 15 13 12 12 13 13 13 14 15 15 16 18 19 19 18 16 15 16 17 20 22 22 22 23 23 25 25 24 24 27 30 30 27 25 27 30 31 30 29 31 35 38 38 37 37 37
13 12 11 11 11 11 12 12 11 11 11 11 12 12 12 13 13 13 13 14 14 14 14 14 15 15 16 15 13 10 10 11 11 10 11 13 14 16 16 17 19 21 21 19 19 18 18 20 22 23 24 23 23 24 24 24 26 27 28 29 28 27 29 30 29 29 29 30 34 39 39 38 38 38
14 13 13 14 14 14 14 14 13 13 13 13 13 13 14 15 15 15 16 17 17 17 17 17 17 15 14 11 9 8 9 9 8 8 10 12 14 16 17 17 18 19 20 22 23 22 20 20 20 22 24 24 23 23 22 23 26 27 27 27 27 27 28 29 28 28 29 29 31 37 40 39 39 38
15 15 15 15 15 15 15 15 15 14 15 14 14 15 16 17 18 18 18 18 18 18 17 15 12 10 8 7 6 6 7 7 6 7 10 12 14 16 16 16 18 18 19 22 25 24 23 23 22 23 24 25 24 24 22 20 23 26 27 26 26 26 27 28 28 29 30 29 29 33 37 39 38 35
16 16 16 16 15 15 14 14 14 14 14 14 15 16 17 19 19 19 19 19 18 15 11 8 7 6 6 6 6 5 5 6 7 9 10 11 13 14 15 16 17 19 21 23 24 24 24 25 25 25 24 23 23 23 24 22 20 22 25 25 24 26 27 28 29 30 32 31 29 29 32 35 37 36
17 17 16 16 15 13 12 11 11 12 14 15 17 18 19 19 19 18 18 16 12 9 8 8 7 7 8 8 6 5 5 6 8 9 10 11 12 14 15 16 18 21 23 23 23 24 24 25 25 22 17 13 11 12 19 26 24 21 23 25 26 27 28 29 30 31 31 31 30 29 29 31 36 38
17 17 16 14 12 9 7 7 9 10 11 12 12 13 13 13 12 10 9 9 10 10 9 8 8 9 9 8 6 5 4 6 8 8 9 11 13 15 16 18 20 22 23 22 22 23 23 24 25 21 13 7 5 5 14 27 31 26 23 25 27 28 29 29 30 31 30 30 30 30 30 31 36 39
17 17 16 12 9 7 6 6 6 6 6 7 7 7 7 8 8 10 11 12 11 9 8 8 9 10 10 8 6 4 4 5 6 7 10 12 14 16 17 19 21 22 22 22 22 23 23 23 25 23 14 7 4 5 10 20 28 29 25 23 25 28 27 27 29 30 31 31 31 31 32 33 35 37
17 17 14 11 10 11 13 13 13 13 13 12 11 11 11 12 13 14 13 11 8 6 5 6 7 6 6 4 3 3 3 4 6 8 11 13 14 17 18 20 21 21 21 21 22 24 25 25 25 26 22 15 13 15 16 18 24 27 24 21 21 23 25 27 29 31 32 32 33 34 35 34 34 34
17 15 13 13 14 15 16 14 13 11 11 10 9 9 10 12 13 13 11 8 6 4 4 4 3 2 1 1 2 3 3 5 7 9 11 13 15 16 18 19 20 20 19 20 22 24 25 27 27 28 27 23 21 22 21 19 20 23 24 22 21 22 24 27 29 31 32 33 35 35 33 32 33 32
18 15 15 15 16 15 14 12 11 11 10 10 9 8 8 8 8 8 7 6 5 5 5 4 3 2 1 1 2 3 4 6 9 9 11 13 15 15 17 18 19 19 17 18 22 24 25 28 28 26 23 21 19 18 15 11 13 19 24 26 26 27 27 27 28 28 30 33 34 32 29 29 31 30
19 17 15 16 16 15 14 12 12 11 10 9 8 6 5 6 6 6 5 5 5 5 4 3 3 3 3 2 2 3 5 7 9 10 12 13 14 15 17 18 18 18 18 19 22 24 26 28 27 23 19 18 17 14 9 8 12 18 22 25 28 30 30 30 29 27 28 29 29 28 28 28 24 18
20 17 16 17 16 15 14 13 12 11 9 8 7 5 5 6 7 7 6 5 5 6 5 3 3 4 5 4 2 3 5 7 9 10 11 13 14 16 18 18 18 18 19 21 23 25 26 27 25 20 17 17 16 13 12 13 16 18 19 22 27 30 32 32 32 30 28 27 26 26 29 29 23 17
19 18 18 19 18 17 15 13 12 10 9 8 7 5 5 6 7 7 6 5 5 6 5 5 5 6 6 4 3 4 5 7 8 9 11 13 14 16 17 18 18 19 20 22 24 26 26 26 22 17 16 17 17 15 15 16 17 18 19 21 25 28 31 32 33 33 32 30 29 30 32 33 29 26
19 19 21 21 20 17 14 13 12 11 10 8 7 6 6 7 8 7 6 6 5 5 6 6 6 7 6 4 3 4 6 7 8 9 11 12 13 15 17 17 18 19 21 22 24 25 25 25 21 16 15 17 17 15 15 15 16 17 19 22 24 27 29 30 30 32 33 33 34 35 36 37 35 30
Wind_Direction
206 208 213 216 214 213 211 204 202 203 203 203 206 209 207 198 186 173 225 250 219 208 222 239 243 235 209 214 224 233 247 264 273 274 277 283 289 292 295 295 294 293 292 292 292 292 293 294 294 295 295 294 292 289 287 287 288 287 287 287 287 285 284 282 283 285 288 290 291 291 291 289 288 289
209 211 215 218 217 213 212 212 210 207 205 206 208 214 220 215 203 185 185 232 219 209 228 236 214 203 189 198 221 241 255 268 276 279 280 281 284 291 296 296 294 293 294 296 296 295 294 292 291 293 295 293 291 290 288 287 286 285 284 284 286 287 287 285 283 283 286 287 286 285 285 285 283 283
211 214 217 220 222 220 217 215 215 212 209 210 212 212 213 212 212 203 187 197 228 219 233 238 219 222 225 227 242 253 259 266 271 275 276 276 280 285 290 293 294 294 295 297 298 296 294 291 290 292 293 289 285 284 285 287 289 289 287 284 284 285 286 287 286 285 287 287 286 284 284 284 281 278
214 217 219 222 224 224 220 215 214 213 211 212 212 211 211 210 212 210 197 196 231 232 236 246 240 244 256 258 257 260 262 263 266 270 273 275 278 281 283 286 290 293 295 297 299 299 298 297 294 292 291 287 284 280 281 285 289 291 291 289 287 285 284 284 285 286 287 287 287 286 286 286 285 281
219 219 221 224 226 227 225 218 213 212 209 210 211 211 214 214 212 213 208 209 231 245 245 247 250 254 260 262 262 265 268 269 271 273 274 277 279 282 285 287 288 290 293 296 300 302 302 302 299 294 290 287 285 282 281 283 286 287 288 289 288 287 285 283 282 283 285 287 287 286 285 285 285 284
221 222 223 224 225 224 222 217 213 212 209 208 209 211 215 219 217 218 217 214 223 245 252 250 254 259 262 263 263 266 270 275 281 280 279 280 281 285 289 291 290 289 289 293 297 300 302 303 302 298 295 292 290 288 286 285 285 285 286 287 287 287 287 285 284 283 283 284 285 285 284 282 281 281
220 222 224 225 223 220 217 215 215 217 216 213 211 213 218 222 222 223 225 221 222 238 251 256 260 263 264 265 267 269 272 277 282 282 283 283 282 286 290 291 291 290 288 288 291 293 295 297 298 298 297 295 293 292 290 288 287 286 286 286 286 286 286 285 285 286 286 286 285 285 284 283 281 280
220 221 224 226 225 222 220 220 220 221 221 218 215 217 223 225 227 229 228 227 228 236 244 254 261 266 268 270 271 272 272 275 277 279 282 283 281 284 288 289 290 289 289 287 286 286 287 288 291 293 293 293 293 293 292 290 289 288 287 286 286 286 285 284 284 286 288 289 289 288 286 283 281 280
221 223 226 229 229 227 227 226 225 223 222 221 220 224 231 230 231 234 230 229 233 236 239 250 260 264 267 268 269 268 267 269 272 273 276 278 279 282 285 286 287 289 290 287 284 282 282 284 287 289 291 292 292 292 291 290 289 289 288 287 287 287 286 285 285 285 286 288 290 290 287 283 279 278
225 225 228 230 230 231 232 232 228 225 223 223 223 228 234 234 229 229 226 226 230 234 240 252 260 262 264 266 269 271 268 266 269 273 276 276 276 279 282 285 286 288 288 285 283 281 280 282 285 288 290 291 291 291 290 288 287 286 285 285 286 286 285 285 286 286 285 285 287 288 288 284 279 276
228 228 229 231 232 233 236 235 230 226 225 227 229 231 234 233 226 223 222 223 228 234 243 253 257 262 266 268 272 278 277 269 267 271 274 276 278 282 287 290 289 287 284 283 283 282 283 285 288 291 291 290 290 289 287 284 282 281 281 281 282 283 285 286 286 284 284 284 284 284 284 283 281 278
230 230 231 233 235 236 237 236 232 230 230 232 235 235 235 232 228 227 229 230 233 238 243 250 255 261 268 271 276 282 280 272 270 274 274 275 281 289 293 295 294 292 291 291 291 290 291 293 296 296 292 289 288 288 286 282 280 280 280 280 282 284 285 286 284 282 282 283 283 281 279 279 279 278
231 233 234 235 238 240 240 238 238 239 239 237 237 239 237 233 231 233 236 236 237 238 240 247 254 260 267 273 276 278 277 275 277 281 278 274 281 287 290 294 295 296 298 300 300 299 300 302 303 300 295 292 292 292 290 287 285 285 285 286 286 287 287 288 286 285 284 285 286 285 281 279 278 279
232 233 234 237 240 243 242 241 242 244 242 239 241 243 239 234 233 233 235 237 238 236 237 246 255 260 267 273 275 275 278 281 280 279 276 274 278 281 283 290 295 298 302 303 302 303 305 305 304 304 301 300 301 300 298 297 294 293 292 295 296 296 297 296 294 292 291 291 291 290 289 287 285 285
231 232 234 236 238 240 240 240 242 245 243 241 243 244 242 241 238 234 235 237 237 237 244 254 261 263 266 274 279 277 280 283 280 277 274 271 271 273 273 281 290 299 305 301 297 300 302 302 303 304 304 304 306 306 306 305 301 296 294 294 296 297 297 296 295 295 295 294 294 293 292 291 290 290
231 231 233 235 236 237 239 242 245 246 245 244 243 243 244 243 239 235 237 240 240 249 261 264 268 269 270 276 282 282 283 285 283 279 274 267 265 267 267 268 279 295 303 298 292 295 299 302 303 303 305 308 309 308 308 308 305 301 298 295 293 293 291 290 289 288 289 289 289 290 290 289 288 288
230 231 233 234 236 237 239 243 246 245 245 245 243 240 237 235 232 233 238 244 250 260 266 267 273 278 280 281 286 289 289 287 285 281 274 270 268 268 269 273 281 293 299 294 289 291 298 303 302 299 304 308 305 304 305 306 304 300 298 296 294 292 290 288 287 286 285 285 285 285 285 284 284 285
230 232 234 234 235 236 238 241 244 244 245 243 236 225 218 218 222 225 235 248 257 262 266 271 277 284 289 289 291 294 293 290 287 283 278 277 276 275 277 281 286 291 294 293 287 284 296 304 300 296 303 304 294 294 299 302 301 298 296 296 295 294 292 290 288 286 284 283 282 282 282 284 286 286
232 235 235 234 236 238 238 241 245 246 243 234 221 214 220 228 230 231 240 254 262 268 274 279 284 292 295 293 292 294 293 290 289 287 285 283 280 280 281 283 285 290 296 298 287 273 291 302 296 290 300 301 293 293 298 301 300 297 296 297 298 299 299 297 294 291 289 288 287 287 287 289 291 291
234 237 236 235 237 239 240 244 245 239 227 210 193 201 221 229 231 234 241 250 262 274 279 283 289 294 293 290 290 290 286 285 289 291 286 280 278 278 280 283 287 294 303 306 296 276 285 296 292 292 303 304 299 298 300 300 298 297 300 305 308 310 310 309 308 306 302 298 294 292 290 291 294 295
234 237 238 236 236 237 238 238 229 210 198 186 180 196 212 222 230 235 237 246 262 277 282 285 288 288 288 287 285 283 283 290 297 292 284 281 282 282 280 282 289 297 305 310 303 285 286 298 302 304 307 306 302 303 305 306 305 308 311 313 313 313 313 314 315 314 311 305 298 294 293 292 294 296
232 235 234 232 232 232 230 224 215 212 218 218 208 207 210 219 232 239 243 253 269 281 283 282 280 278 282 283 282 288 295 298 298 293 290 293 294 291 288 290 296 304 309 311 305 294 297 305 308 306 305 303 301 302 307 312 315 315 315 315 315 315 316 316 316 316 315 310 304 299 297 295 295 295
220 222 223 224 228 230 227 222 226 236 235 224 217 214 213 220 235 247 257 268 280 283 278 273 270 273 280 285 293 300 301 298 300 303 306 312 313 311 308 304 303 303 304 308 309 301 299 305 307 304 297 294 300 304 306 312 317 317 316 316 316 317 317 316 315 315 314 312 309 305 301 298 296 294
212 216 221 222 225 229 229 229 236 241 227 214 214 216 219 230 245 256 265 273 278 276 271 270 274 281 288 293 299 301 299 299 303 305 309 326 332 329 316 304 293 275 283 306 314 301 294 298 301 300 295 279 282 299 305 310 314 316 317 315 314 317 317 314 312 313 312 310 309 307 303 300 297 293
217 219 220 221 224 229 231 232 234 232 217 209 212 219 227 241 254 260 263 266 267 267 271 278 285 290 295 297 298 299 301 303 301 290 297 315 323 322 313 302 289 279 289 312 318 299 290 293 296 297 295 285 276 289 301 306 309 314 316 313 311 313 313 311 309 309 309 308 308 306 303 301 298 294
220 221 222 224 228 228 225 228 236 230 216 210 216 230 242 251 257 258 256 259 262 268 279 287 291 295 297 296 295 297 301 302 295 292 299 310 319 321 316 309 297 291 299 316 317 302 291 291 294 294 291 288 290 294 297 301 307 312 313 310 309 309 308 307 305 305 306 305 304 304 302 300 297 295
220 222 225 226 225 221 219 231 236 224 213 215 229 244 248 249 249 248 251 259 268 277 285 289 293 295 294 288 283 281 285 290 292 293 298 307 316 317 312 308 304 303 308 315 315 309 299 295 299 300 294 291 294 297 295 295 302 307 307 307 309 308 306 305 303 303 304 303 303 303 302 298 297 295
222 220 220 220 219 223 231 235 228 218 219 235 249 250 243 237 236 242 254 265 272 277 282 287 290 289 282 270 267 276 288 290 289 291 297 306 312 311 306 307 309 310 313 314 316 318 312 306 308 310 305 297 289 286 289 291 295 300 302 304 306 306 306 306 304 303 304 303 302 301 298 296 296 295
219 216 215 211 212 224 230 227 224 229 241 251 249 235 228 230 237 249 257 258 259 264 269 272 273 272 268 269 276 287 290 285 286 295 302 305 307 307 308 311 314 317 321 323 325 329 326 317 315 314 309 302 291 284 285 288 291 296 299 299 300 303 305 307 306 305 304 302 300 298 296 294 294 293
204 202 199 190 191 204 219 226 232 239 243 237 224 219 225 234 242 246 240 234 234 238 243 248 254 259 265 276 287 290 283 278 288 301 305 305 307 310 313 315 318 324 330 334 336 337 331 324 321 314 308 305 300 294 291 289 289 295 300 300 299 301 305 306 306 304 301 300 299 298 296 294 292 290
187 183 179 181 192 206 217 225 229 226 219 213 213 217 224 233 236 229 222 223 229 235 243 250 255 262 272 284 291 288 277 279 294 304 306 306 308 314 317 315 318 327 334 341 345 339 331 329 328 323 314 307 305 306 306 300 293 295 302 305 302 299 302 305 304 303 302 302 301 299 297 295 293 291
178 177 177 180 192 203 206 206 204 202 204 209 215 222 229 232 230 223 221 229 236 241 249 256 262 272 282 287 287 278 274 287 302 308 310 310 313 319 321 316 319 327 334 340 343 340 336 335 334 332 327 318 313 316 315 308 301 300 302 306 306 303 303 304 304 304 307 307 303 300 299 297 295 293
173 173 177 181 188 194 196 195 194 198 207 214 222 231 233 231 230 229 231 236 242 247 255 264 271 277 279 273 266 265 278 294 305 312 317 319 321 324 324 321 325 330 332 334 338 339 339 339 335 333 333 330 327 325 316 305 303 305 305 305 306 305 306 307 306 307 309 308 303 300 299 296 295 294
176 173 176 182 188 191 191 194 199 207 217 228 238 243 241 237 237 238 238 242 250 259 265 269 268 261 251 244 247 262 281 295 306 316 322 325 327 330 331 330 333 336 333 331 334 337 338 338 336 335 336 336 334 331 322 305 298 303 306 305 305 305 307 310 311 310 310 308 302 298 297 296 296 296
177 176 179 184 190 194 198 206 216 224 234 245 252 251 247 244 242 242 244 250 256 260 256 240 220 217 223 230 241 257 278 299 315 322 326 332 336 340 340 335 334 336 333 331 333 336 336 335 334 332 332 334 332 330 330 323 307 301 305 308 309 310 311 312 314 314 312 310 305 299 296 297 299 301
179 182 187 190 193 199 208 222 237 247 254 259 260 257 254 251 249 251 254 253 245 225 202 191 199 215 225 230 240 260 284 308 323 330 338 346 349 346 343 338 334 334 332 331 332 335 335 334 332 327 322 326 327 320 324 327 322 311 308 310 314 317 316 316 317 315 313 312 309 302 297 297 299 302
183 189 194 193 192 201 221 242 254 258 259 259 257 255 251 248 247 244 233 212 193 183 186 200 216 224 229 236 248 264 289 315 333 342 349 353 350 344 339 336 334 333 332 332 334 336 335 332 329 323 313 313 319 299 311 320 323 322 320 318 318 320 320 318 317 316 314 313 310 304 300 298 298 301
188 189 189 187 185 187 191 193 185 171 161 162 165 169 176 184 186 178 175 176 178 184 200 222 232 236 242 249 257 271 298 327 343 352 353 348 343 339 335 333 332 332 332 332 335 337 336 332 327 322 315 301 293 291 301 311 315 320 327 327 320 318 320 319 317 315 315 314 312 309 305 300 298 301
190 187 181 175 168 160 155 152 148 142 140 141 142 144 151 160 165 167 170 174 181 193 212 225 232 240 248 258 279 300 321 348 356 353 348 341 337 336 336 333 331 331 330 330 332 336 335 332 328 324 318 306 297 298 298 297 301 312 326 334 326 320 321 322 320 317 316 316 316 313 311 309 306 307
187 181 172 164 158 155 153 151 151 151 149 145 139 136 140 150 160 168 176 184 191 194 195 196 199 209 228 323 335 330 336 353 354 348 343 339 338 339 338 333 332 331 328 325 328 331 331 331 331 329 323 317 314 314 309 302 302 313 327 337 336 330 327 326 325 320 317 317 318 317 316 318 317 315
181 171 166 164 163 161 159 158 158 158 154 147 141 133 133 146 161 172 178 184 187 186 188 199 219 235 225 259 315 321 333 345 348 345 341 340 340 339 338 335 333 332 327 321 322 326 329 333 336 337 333 331 330 327 321 312 311 319 327 335 339 338 335 334 332 326 320 319 320 318 319 321 318 315
177 172 170 169 168 167 166 167 165 160 153 148 143 137 143 162 171 173 175 183 195 199 205 219 232 233 220 216 258 306 328 340 343 342 342 343 342 340 339 336 333 331 325 320 321 326 332 339 344 346 345 342 337 331 322 310 309 314 322 329 336 340 343 344 341 335 329 327 326 324 324 324 320 315
181 183 179 174 173 173 172 172 171 166 158 153 149 146 158 172 178 181 185 196 206 207 211 221 227 224 216 211 239 298 319 333 338 341 344 344 342 338 337 336 335 331 326 324 327 331 337 344 348 348 347 345 340 328 316 314 314 315 321 327 332 338 344 346 345 341 338 337 337 336 333 329 324 317
188 191 185 178 178 178 175 172 170 168 164 161 159 160 171 186 195 197 194 195 200 205 218 232 224 205 198 201 244 293 312 326 332 335 339 341 340 339 337 336 334 332 328 328 331 334 340 346 349 347 345 345 341 328 319 320 320 320 324 330 333 337 342 344 342 341 340 342 344 344 342 339 334 328
191 189 184 182 181 178 173 171 171 169 169 171 173 180 191 197 202 203 198 200 213 226 232 226 201 185 187 209 262 292 310 319 320 323 331 335 335 336 337 335 333 331 330 331 332 332 336 342 345 343 341 345 347 340 330 328 327 325 329 335 337 339 342 342 340 338 338 341 345 347 346 346 346 344